Location: Casa Rossa
(45.2389°N, 12.2056°E)
Time: 22:55:00
(UTC+00:00)

SL-19 R/B - Pass Details

Date: 14 July 2020
Orbit: 358 x 810 km, 99.4° (Epoch: 14 August)

Event Time Altitude Azimuth Distance (km) Brightness Sun altitude
Rises 02:34:14 0° 18° (NNE) 2,224 8.7 -9.5°
Reaches altitude 10° 02:36:07 10° 21° (NNE) 1,395 7.6 -9.3°
Maximum altitude 02:39:01 65° 104° (ESE) 440 4.0 -8.9°
Drops below altitude 10° 02:42:11 10° 188° (S) 1,514 6.1 -8.5°
Enters shadow 02:42:54 - 189° (S) 1,822 6.5 -8.4°
